Pagina principale
METAR-TAF:

METAR-TAF

Aeroporti :

Monte Scuro, Italia

latitudine: 39-20N, longitudine: 016-24E, altezza: 1710 m

Osservazione

Il bollettino è stato emesso 1 ora e 9 minuti fa, alle 09:55 UTC
Vento 15 kt da nord-est
Temperature 11°C
Umidità 100%
Pressione 1017 hPa
Visibilità minore di 50 m
nebbia

METAR: LIBQ 150955Z 04015KT 0000 FG VV/// 11/11 Q1017 RMK MON INVIS VAL INVIS VIS MIN 0000

Ora: 13:04 (11:04 UTC)


TAF: mancante

Osservazioni e previsioni meteorologiche di più di 4000 aeroporti (messaggi METAR e TAF).

Le stazioni disponibili sono rappresentate dai dischi gialli e rossi sulla carta.

Puntare il mouse per vedere il nome della stazione.

Clicca sopra per visualizzare le osservazioni e previsioni meteorologiche.

Per cambiare la mappa : fare clic sui pulsanti verdi con una croce nera per ingrandire, il pulsante verde con un trattino per diminuire, o sulla freccia verde per le mappe adiacenti.


METAR-TAF: